Retour au catalogue

STARLINK-35243

ActifCommunicationsVLEO
NORAD 66016·PAYLOAD·🇺🇸 United States

Lancé Oct 16, 2025 depuis Cape Canaveral Space Force Station

Loading…

Prochains Passages (prochaines 24 heures)

TLE

FraisSource: CelesTrak SupGP

Époque: Sep 15, 2026, 04:14 UTC

1 66016C 25232M   26258.17687500  .00004505  00000+0  13308-3 0  2589
2 66016  53.1578 300.8585 0001203  93.9829  56.2597 15.34392093    19

Suivez STARLINK-35243 en temps réel avec AllMySat

Download on the App Store